Voltar ao catálogo

STARLINK-31137

AtivoComunicaçõesVLEO
NORAD 58686·PAYLOAD·🇺🇸 United States

Lançado Dec 29, 2023 de Cape Canaveral Space Force Station

Loading…

Próximas Passagens (próximas 24 horas)

TLE

AtualizadoSource: CelesTrak SupGP

Época: Sep 14, 2026, 21:04 UTC

1 58686C 23211V   26257.87826389  .00007085  00000+0  25668-3 0  2571
2 58686  42.9997  96.9475 0001403 270.9325 221.2403 15.27567783    17

Acompanhe STARLINK-31137 em tempo real com AllMySat

Download on the App Store